Reflectivity
-15 -17 -20 -20 8 -20 -20 -20 16 16 -2 -20 -20 -20 -20 -19 -20 -20 -20 -20 -20 -10 -17 -20 -20 -20 1 -20 -20 -4 -20 -20 -20 -20 -20 -20 6 10 -2 -20 -1 -20 -20 -20 -20 -20 -20 -20 -20
21 -15 -20 -20 4 -20 -20 -20 -20 31 -18 -20 -20 -20 -2 -11 -20 -9 -5 -20 -20 -20 -3 -20 -20 -13 7 7 -12 -2 -20 -20 -20 -20 -20 -20 -20 -20 -20 -20 -20 -20 -20 -20 -20 -20 -20 -20 -20
22 22 14 -20 -20 -20 -20 7 -20 3 35 -18 -20 -20 -20 21 -20 -20 -15 3 -20 -10 -13 -20 -17 -15 -20 -19 -0 -20 -17 -20 -20 -20 -20 -20 -20 -20 -20 -20 -20 -20 -20 -20 -20 -20 -20 -20 -3
30 -7 -14 -20 -20 -20 -20 11 -17 -7 32 -18 -20 -20 -20 -15 2 -12 -20 -20 -20 -14 -20 16 -10 -1 -19 10 -11 -20 12 -20 -20 -20 -20 -20 -20 -20 -20 -20 -20 -20 -20 -20 -20 -20 -20 -20 -20
27 24 8 -20 -20 -20 -12 5 -5 -13 1 24 -18 -19 -12 -20 -6 -12 -20 -20 -20 -10 -20 -20 14 -20 -18 -20 -20 -20 16 -14 -20 -20 -20 -20 -20 -20 -20 -13 -20 -20 -20 -20 -20 -20 -20 -20 -20
30 16 12 -20 -20 -20 3 16 -13 2 -3 10 9 -16 -10 8 10 -4 -20 -20 -20 -20 -1 -20 -2 -20 -20 -20 -20 -20 -6 9 -15 -20 -20 -20 -20 -20 -20 -20 -20 -20 -20 -20 -20 -20 -20 -20 -20
34 10 -19 -20 -20 -20 -3 17 -20 3 -16 -7 -3 -6 -20 -3 17 -7 -19 -20 -20 -20 -20 14 -14 -20 -20 -20 -20 -20 -20 15 -11 -20 -20 -20 -20 -20 -20 -20 -20 -20 -20 -20 -20 -20 -20 -20 -20
35 2 -20 -20 -20 -20 -20 14 -20 -12 -20 -20 5 -13 8 -6 28 29 19 2 -20 -20 -19 -20 -7 -20 -20 -20 -20 -20 -20 -20 14 -20 -20 -20 -20 -20 -20 -20 -20 -20 -20 -20 -20 -20 -20 -20 -20
28 19 -20 -20 -20 -20 -20 3 -20 -20 -20 -20 -2 -12 12 -17 38 30 33 16 -4 -7 -20 -20 -20 -20 -20 -20 -20 -20 -20 -20 -9 -20 -20 -20 -20 -20 -20 -20 -20 -20 -20 -20 -20 -20 -20 -20 -20
27 24 -20 -13 -7 -20 -20 -10 -15 -20 -20 2 13 3 10 -18 19 35 36 20 1 13 7 -20 -20 -20 -20 -20 -20 -20 -20 -20 -20 -20 -20 -20 -20 -20 -20 -20 -20 -20 -20 -20 -20 -20 -20 -20 -20
32 -0 -20 17 -20 -20 -20 -20 4 -11 -8 -20 -20 30 -7 3 -2 38 29 40 22 -8 1 -20 -20 -20 -20 -20 -20 -20 -20 -20 -20 -20 -20 -20 -20 -20 -20 -20 -20 -20 -20 -20 -20 -20 -20 -20 -20
37 21 6 14 -20 -20 -20 -20 -20 -20 -15 6 -15 -20 -1 6 25 5 25 8 9 -17 -20 -20 -20 -20 -20 -20 -20 -20 -20 -20 -20 -20 -20 -20 -20 -20 -20 -20 -20 -20 -20 -20 -20 -20 -20 -20 -20
15 37 -18 19 -3 -20 -13 -20 -20 -20 -20 -18 -15 -20 -20 -13 -12 -19 27 37 10 -10 -20 -20 -20 -20 -20 -20 -20 -20 -20 -20 -20 -20 -20 -20 -20 -20 -20 -20 -20 -20 -20 -20 -20 -20 -20 -20 -20
33 37 12 6 3 -18 -5 -20 -20 -20 -20 -20 -20 -20 -20 1 -9 -10 17 27 24 5 -13 15 18 -8 -20 -20 -20 -20 -20 -20 -20 -20 -20 -20 -20 -20 -20 -20 -20 -20 -20 -20 -20 -20 -20 -20 -20
30 40 31 20 27 14 -17 -20 -20 -20 -20 -20 -20 -17 -9 -20 8 -19 4 4 5 8 -14 -18 -20 -9 -20 -20 -20 -20 -20 -20 -20 -20 -20 -20 -20 -20 -20 -20 -20 -20 -20 -20 -20 -20 -20 -20 -20
-17 8 38 18 18 28 27 -9 -20 -20 -20 -20 -20 -20 -20 -20 8 -1 -20 -7 -1 6 3 -20 -20 -17 -19 -20 -19 -20 -20 -20 -20 -20 -20 -20 -20 -20 -20 -20 -20 -20 -20 -20 -20 -20 -20 -20 -20
13 21 30 7 21 42 8 32 -20 -20 -20 -20 -20 -20 -20 -20 -20 -12 -20 -20 7 -5 -13 16 -10 -19 -18 -20 -20 -17 -20 -20 -20 -20 -20 -20 -20 -20 -20 -20 -20 -20 -20 -20 -20 -20 -20 -20 -20
-20 3 0 11 21 37 18 15 16 -17 -13 -20 -20 -20 -20 -20 -20 -20 28 1 -20 -17 -0 1 -20 -20 -20 -2 -20 4 -19 -20 -20 -20 -20 -20 -20 -20 -20 -20 -20 -20 -20 -20 -20 -20 -20 -20 -20
-10 6 10 5 31 15 19 21 25 11 21 -14 -20 -20 -20 -20 -20 -20 -20 -20 -16 -18 -17 4 -20 -20 -20 -20 0 -20 -20 -20 12 -13 -4 -20 -15 -16 -20 -20 -20 -20 3 -17 -3 -15 -12 -11 -18
-20 -20 -19 -14 6 3 16 1 5 19 -15 -12 -20 -20 -20 -20 -20 -20 -20 -20 -20 -14 -16 -3 -9 -19 -20 -20 -20 -20 -20 -20 -20 -4 -14 -20 -14 -14 -20 -16 -2 -5 -1 5 27 26 6 -8 6
-20 -20 -20 -20 -18 -20 -11 -15 15 4 8 -17 -20 -20 -20 -20 -20 -20 -20 -20 -2 -8 -20 -19 -15 -20 -20 -20 18 -1 -16 -15 -19 -20 -19 -16 30 31 31 20 35 30 33 34 28 19 14 13 -9
-20 -20 -20 -20 -11 -20 -20 -20 -6 -10 -19 -3 -20 -20 -20 -20 -20 -20 -20 -20 -20 -5 -20 -20 -20 -20 -20 -20 -20 -18 -16 30 -14 -20 -20 22 -20 -20 31 28 -2 1 12 4 32 32 11 -2 5
-20 -20 -20 -20 -15 -20 -20 -20 -20 -20 -20 -20 -20 -20 -20 -20 -20 -20 -20 -20 -20 -20 -20 -20 -20 -20 -20 -20 -20 -20 -13 -15 -10 -20 -20 -20 -20 -20 -20 -0 -20 -11 -10 2 14 7 -10 -6 -5
-20 -20 -20 -8 -16 -9 -20 -20 -20 -20 -20 -20 -20 -20 -20 -20 -20 -20 -20 -20 -20 -20 -20 -20 -3 -20 -20 -20 -20 -20 -20 -20 -20 -17 -20 -20 -20 -19 -19 24 21 23 -20 -10 22 -15 -20 -17 -19
-20 17 6 -5 23 -18 -20 -20 -20 -19 -20 -20 -20 -20 -20 -20 -20 -20 -20 -20 -20 -20 -20 -20 -20 -20 19 10 10 -7 14 -18 -20 -20 31 31 -10 15 -0 12 2 -19 -20 -10 -3 -0 5 -11 -19
-20 -9 13 -20 -17 -18 -14 -20 -20 -12 -20 -20 -20 -20 -20 -20 -20 -20 -20 -20 -20 -20 -20 -20 -20 -20 -20 20 -20 -20 17 22 30 31 25 29 29 -5 -4 20 -16 -13 -20 4 -18 -18 -8 -8 -20
-20 -20 -8 -7 -20 -20 -20 -20 -20 -11 -16 -20 -20 -20 -20 -20 -20 -20 -20 -20 -20 -20 -20 -20 -20 -20 -20 -20 -20 -20 -20 -20 25 0 -12 23 7 0 37 29 5 -20 -20 -20 -20 -20 -8 -11 -20
-20 -9 -0 5 10 -20 -20 -20 -20 -20 -20 -20 -20 -20 -20 -20 -20 -20 -20 -20 -20 -20 -20 -20 -20 -20 -20 -20 -20 -20 -20 -20 -6 -20 -20 -20 -20 -20 -20 -11 -9 -20 -20 -20 -20 -20 -20 -20 -20
-18 -20 -20 -20 -0 -20 -20 -20 -20 -20 -20 -20 -20 -20 -20 -20 -20 -20 -20 -20 -20 -20 -20 -20 -20 -20 -20 -20 -20 -20 -20 -20 -20 -20 -20 -20 -20 -20 -20 -20 -20 -16 -5 -20 -20 -14 -20 -20 -20
1 15 10 2 -20 -20 -20 -20 -20 -20 -20 -20 -20 -20 -20 -20 -20 -20 -20 -20 -20 -20 -20 -20 -20 -20 -20 -20 -20 -20 -20 -20 -19 -15 -20 -20 -20 -19 2 13 -16 6 7 12 18 4 -19 -20 -20
Wind_Speed
13 2 2 3 3 3 4 7 4 5 6 1 4 6 11 5 3 3 8 11 19 15 15 16 18 17 16 17 20 15 16 14 13 16 18 19 19 20 20 21 18 18 17 17 16 16 16 15 14
3 4 3 2 4 4 5 5 5 14 3 6 7 5 3 4 6 9 7 16 18 15 14 14 17 17 16 15 21 17 16 16 15 15 17 18 18 18 18 19 18 17 17 16 14 15 14 13 12
7 3 4 5 5 11 5 5 5 10 6 5 4 5 3 6 11 6 11 18 18 13 12 13 17 17 16 17 19 17 17 17 17 16 15 16 18 17 18 18 17 16 16 14 13 13 13 11 11
6 1 2 5 8 6 6 4 8 5 6 1 6 7 3 3 4 11 16 17 17 12 10 15 18 18 17 16 17 16 18 19 19 18 16 16 18 18 18 17 16 15 14 14 13 12 12 10 11
2 2 3 4 6 3 6 1 8 8 13 10 6 4 3 3 8 21 18 15 16 11 10 13 18 18 18 16 15 15 16 19 19 18 17 17 17 18 18 16 15 14 14 13 12 11 11 9 9
5 4 4 6 5 6 5 5 7 3 2 4 7 7 4 4 17 14 16 15 14 14 11 13 16 17 17 16 14 14 13 18 17 17 17 16 17 17 17 16 15 14 14 12 11 9 9 8 7
4 4 9 5 8 4 6 3 5 4 3 3 2 10 5 12 1 9 14 13 13 12 11 10 11 13 15 14 13 13 12 12 17 16 15 14 13 14 15 14 14 14 13 12 11 9 7 6 5
3 2 6 4 8 7 5 5 4 5 2 2 3 6 8 9 7 10 11 14 13 11 10 9 9 9 9 7 12 11 10 9 15 15 13 11 9 10 11 9 10 11 11 10 9 9 6 4 2
2 2 5 5 8 5 3 6 2 4 5 3 2 3 11 16 19 12 11 12 12 11 11 10 10 9 9 7 8 11 12 10 10 11 12 9 4 5 6 5 8 8 9 9 7 6 5 3 1
3 3 6 2 4 3 4 5 7 5 2 4 5 9 10 12 22 21 10 12 14 15 13 12 11 10 9 7 6 6 6 4 5 6 7 4 5 4 5 6 8 7 7 6 7 7 5 3 2
2 2 1 6 11 5 4 4 3 10 2 4 10 12 8 7 14 19 20 15 13 16 11 11 11 11 9 7 4 3 3 3 4 6 5 5 4 3 3 2 3 3 5 2 3 3 2 3 3
8 6 6 8 10 7 4 2 4 3 3 7 6 6 8 8 11 16 15 15 14 13 12 12 12 11 7 6 5 5 4 3 3 5 7 4 3 4 3 3 4 3 3 4 3 2 3 4 5
5 4 9 9 13 10 7 7 2 4 6 8 8 4 5 8 6 4 11 12 13 13 11 13 13 12 9 9 5 5 4 5 5 5 7 5 5 5 4 4 3 3 3 3 4 4 4 5 5
6 8 11 13 11 9 3 4 4 3 3 8 7 7 5 5 8 7 6 10 12 12 14 14 14 12 12 9 9 7 5 6 5 5 6 8 6 5 6 4 4 4 4 4 4 5 4 4 3
11 4 9 10 7 6 11 4 4 5 3 6 7 6 5 4 7 9 8 7 7 7 8 12 14 11 12 12 9 7 7 7 6 6 7 8 7 6 6 5 4 4 4 5 4 3 3 3 2
6 6 4 2 5 3 6 5 2 6 7 4 5 5 6 6 5 6 7 8 8 7 8 7 7 8 8 9 7 6 5 7 7 6 6 7 7 7 5 4 4 4 4 4 2 2 2 3 3
2 3 4 4 3 2 6 3 5 4 6 8 6 7 7 6 6 6 6 8 10 9 10 9 7 7 6 5 5 6 6 5 6 6 6 8 7 6 5 4 4 4 3 3 3 3 2 2 3
6 5 2 5 5 4 2 4 6 7 11 10 9 7 7 6 10 9 10 8 7 8 8 10 9 8 7 4 3 2 2 3 3 6 6 9 7 7 5 4 4 4 3 4 2 4 3 3 4
6 9 8 5 11 8 9 6 8 11 12 11 9 8 8 9 9 7 7 8 7 6 7 9 8 9 8 5 4 2 3 2 2 3 6 7 7 7 7 5 5 4 4 5 5 2 4 4 2
2 6 5 3 8 4 5 7 12 12 13 12 10 11 10 6 8 8 7 7 9 14 12 9 9 8 7 4 3 3 3 2 2 2 3 5 5 4 4 3 3 2 1 1 3 3 1 2 3
3 5 6 3 7 2 3 4 11 13 16 10 9 8 9 12 10 9 9 9 8 9 13 13 13 11 9 8 4 3 2 1 2 2 2 3 5 6 7 9 6 6 3 2 2 3 4 2 2
1 2 7 9 8 5 6 5 4 8 13 13 12 10 10 9 6 7 11 8 9 9 6 11 13 12 11 9 8 10 9 9 4 4 4 4 6 7 5 8 8 6 4 6 2 3 3 2 4
2 2 4 5 5 4 5 1 8 2 8 17 10 11 12 12 10 10 11 14 10 7 5 2 3 4 6 8 10 8 5 4 2 3 7 5 5 5 3 1 3 4 4 2 5 3 2 2 2
3 5 8 7 4 1 6 8 5 6 7 4 7 14 15 14 10 9 10 9 6 4 5 5 6 4 5 6 4 7 9 7 5 4 5 5 4 3 5 4 2 1 1 2 3 1 2 3 3
2 3 3 1 4 4 4 4 9 6 8 7 8 10 12 10 9 9 10 7 6 8 7 6 7 7 6 6 5 6 6 4 5 6 4 6 4 1 3 2 0 2 3 2 3 0 3 3 3
5 9 3 5 4 5 5 7 8 10 8 8 8 4 6 9 8 8 9 8 9 9 8 8 7 6 5 5 4 4 4 3 4 4 5 2 1 5 5 2 1 2 1 4 2 1 3 4 4
5 4 4 4 3 3 4 6 9 6 3 2 5 4 3 1 3 9 9 9 9 9 10 10 8 6 6 5 4 3 4 2 2 3 5 5 6 6 3 7 3 3 2 1 1 2 4 4 3
3 6 4 2 5 4 4 4 6 3 7 4 4 5 3 2 4 2 6 7 4 3 3 5 6 7 7 7 6 5 7 7 6 6 7 6 6 5 3 5 3 1 3 2 1 2 4 4 3
3 3 2 4 4 4 1 7 6 8 8 10 8 7 6 4 3 3 3 4 5 4 5 6 6 7 7 7 7 8 6 7 6 6 5 7 6 4 2 2 3 3 1 2 4 4 5 4 4
4 6 7 5 5 2 3 6 4 1 6 6 6 5 4 4 3 5 3 4 4 6 6 7 6 7 6 7 7 7 7 6 7 8 6 4 3 7 6 4 5 3 3 4 3 4 3 4 4
Wind_Direction
230 158 91 58 152 68 216 240 238 118 150 18 104 138 121 130 140 218 128 128 133 137 141 142 149 140 137 132 124 124 116 111 110 106 101 101 104 107 106 105 105 103 102 102 103 101 99 100 96
194 166 50 113 140 151 245 235 180 127 263 126 100 68 110 103 97 113 122 141 136 139 143 144 148 139 137 138 125 128 124 116 108 105 106 107 108 108 107 104 107 106 105 104 103 101 101 98 94
209 152 136 152 163 205 190 209 210 150 211 232 109 46 114 89 121 120 134 141 134 137 142 148 141 134 126 123 128 131 130 123 116 112 111 112 113 114 113 110 112 112 111 110 106 103 102 99 84
210 58 288 145 201 233 193 148 176 115 215 2 118 73 70 26 149 134 146 142 132 138 146 146 141 136 129 125 128 133 134 127 123 119 119 119 120 120 115 118 115 115 117 114 110 108 106 96 76
180 181 156 166 215 245 243 103 162 166 164 205 125 169 69 36 118 138 144 142 135 133 143 141 137 136 130 132 134 137 133 132 128 124 124 126 127 126 126 124 123 119 117 117 117 116 112 98 80
199 165 129 188 184 202 246 187 118 104 72 138 111 109 79 10 117 139 144 144 140 139 141 139 133 132 133 137 139 141 140 138 132 127 126 129 132 134 134 134 130 124 120 122 121 121 118 106 89
240 136 176 162 161 176 219 139 87 113 148 36 157 121 117 118 218 147 149 136 137 140 135 135 134 135 134 137 139 141 141 137 139 134 131 130 133 137 137 139 136 133 130 131 132 133 127 112 98
218 130 136 168 153 197 205 93 109 97 72 86 8 152 170 153 146 124 153 138 139 144 136 129 131 135 132 137 135 132 131 132 143 135 128 129 131 134 138 141 142 141 139 140 143 143 141 129 104
117 169 151 160 166 157 183 118 17 64 88 64 21 104 137 135 136 141 152 137 147 154 146 140 136 133 131 131 139 134 135 131 122 129 132 128 128 127 127 141 143 148 154 155 160 161 161 170 246
141 158 140 37 316 126 107 100 137 101 94 25 94 83 126 128 143 143 165 148 164 162 155 151 145 142 140 141 137 134 136 137 132 140 142 137 142 149 147 158 161 165 170 179 184 187 202 204 265
175 51 94 36 1 339 128 100 105 128 104 199 163 153 145 141 144 146 153 172 174 164 159 159 151 149 148 142 143 139 143 145 150 150 149 150 152 171 158 165 170 175 184 204 221 230 216 238 236
144 40 60 5 12 17 16 52 58 51 124 139 146 143 138 157 154 150 154 161 160 165 163 164 157 158 157 149 156 159 161 162 167 169 168 158 161 176 185 181 189 193 190 204 216 227 244 234 245
52 351 46 35 16 3 358 51 171 75 103 112 122 143 174 157 159 145 147 155 155 160 169 169 162 165 163 160 158 161 176 174 179 174 183 171 171 187 178 193 201 198 195 205 225 228 237 247 239
107 63 30 36 16 5 359 33 64 6 62 114 135 158 189 177 148 159 188 152 160 160 167 171 171 171 170 166 170 176 182 187 181 173 188 190 183 182 191 186 202 205 202 211 214 217 234 249 238
112 60 19 21 23 3 322 67 74 14 4 148 150 176 191 186 159 173 184 156 152 155 159 175 174 175 176 163 181 174 187 193 193 191 185 185 181 185 182 183 189 208 207 203 209 215 210 227 239
79 61 114 30 32 313 339 181 341 8 353 164 175 191 199 205 202 183 175 160 175 160 167 178 176 178 179 170 167 182 184 177 195 190 175 176 179 181 170 169 187 193 191 189 180 187 236 252 248
73 143 195 83 23 314 34 235 335 350 332 293 204 198 206 213 226 224 206 179 181 176 173 173 168 170 178 202 171 169 190 181 189 183 178 179 169 173 168 181 194 180 194 196 193 206 193 236 279
139 132 178 150 122 190 88 275 326 333 292 255 247 223 223 225 220 209 209 218 172 177 184 181 171 165 168 181 154 147 166 197 180 184 187 182 187 174 174 185 192 178 182 210 202 212 216 215 232
148 137 145 152 179 165 182 195 256 258 281 265 233 224 227 221 230 233 222 206 201 189 197 190 184 188 173 172 176 209 170 192 188 191 195 184 178 186 179 181 190 201 190 208 206 194 227 244 214
217 183 158 189 171 159 144 232 234 219 249 251 229 220 212 220 228 234 225 207 198 195 195 200 205 186 183 184 177 163 164 181 164 121 99 144 143 137 151 128 127 101 244 282 267 227 217 262 193
219 164 189 160 121 51 70 244 210 221 232 247 236 221 218 196 206 218 213 208 214 202 193 193 197 196 198 189 150 105 112 103 150 156 166 176 182 179 173 156 170 160 132 207 195 246 236 246 263
221 259 173 145 133 198 169 267 260 197 233 223 229 227 231 235 221 200 214 214 204 223 207 208 198 197 197 176 184 194 208 207 191 177 163 168 166 152 170 172 171 182 163 173 175 245 219 200 239
226 36 116 126 106 112 179 258 266 227 232 232 225 228 227 225 212 212 202 212 215 201 207 208 189 174 195 188 193 202 202 209 207 140 157 131 105 95 74 37 131 167 164 208 140 194 232 240 275
152 58 51 36 48 227 213 186 272 215 204 225 242 225 222 225 215 216 214 194 204 184 174 183 196 193 177 171 183 199 198 183 152 141 144 138 120 120 136 110 82 10 50 199 119 152 248 249 250
86 60 129 196 202 219 168 161 248 258 249 216 253 235 213 218 213 196 201 188 179 189 187 185 177 190 202 209 200 195 226 187 196 160 169 159 121 65 39 44 360 129 141 81 84 274 254 238 217
183 153 157 177 205 201 147 213 248 238 250 248 254 241 198 211 214 194 203 195 192 186 182 179 184 167 161 174 196 209 194 176 167 172 136 101 135 136 128 82 111 76 352 60 37 318 275 245 234
206 177 168 97 34 44 219 286 301 258 267 256 177 101 93 151 199 217 184 184 190 179 191 181 173 164 158 140 127 118 105 140 154 116 141 173 149 127 186 160 144 199 142 79 322 260 272 272 264
176 155 122 88 185 217 267 269 234 259 214 158 127 129 115 45 22 15 160 164 164 172 153 143 164 167 154 140 134 128 124 122 117 109 102 83 72 78 129 97 136 330 18 14 352 333 290 260 256
159 174 171 140 160 186 215 256 215 245 201 177 183 158 142 114 89 94 82 114 152 137 158 169 169 157 153 142 139 129 127 119 100 96 109 119 111 107 93 132 155 115 130 18 4 315 279 269 264
232 197 183 167 207 203 150 275 308 249 125 145 156 146 146 143 124 126 119 112 136 178 176 183 178 163 161 146 141 137 136 131 119 129 97 37 135 152 163 160 146 144 51 27 341 304 298 279 264